Location: Observatoire
(46.1952°N, 5.3391°E)
Time: 16:00:30
(UTC+01:00)

Injun/Solrad 3 - Pass Details

Date: 21 February 2026
Orbit: 872 x 984 km, 66.8° (Epoch: 7 March)

Event Time Altitude Azimuth Distance (km) Brightness Sun altitude
Rises 19:48:13 0° 326° (NW) 3,575 11.5 -17.1°
Reaches altitude 10° 19:50:43 10° 326° (NW) 2,645 10.8 -17.6°
Maximum altitude 19:56:54 85° 239° (WSW) 961 8.0 -18.6°
Enters shadow 20:02:52 12° 152° (SSE) 2,567 9.9 -19.6°
